sat.trackr.live / text

‹ back to catalog

STARLINK-37148

NORAD 68310 · 2026-057S

PAYLOAD ACTIVE UNKNOWN

§ Identity

Operator
Country
US
Launch date
2026-03-20
Launch site
AFWTR
Launch vehicle
Mass (kg)
RCS (m²)

Purposes: comms

External: N2YO · Heavens-Above · Gunter

§ Orbital elements

Epoch: 2026-05-24T20:28:42.537504Z

Period
91.42 min
Inclination
97.2852°
Eccentricity
0.0002832
Mean motion
15.75181110 rev/d
Perigee alt
342.2 km
Apogee alt
346.0 km
Semi-major
6,722.3 km
B*
9.6557e-4
RAAN
271.0652°
Arg perigee
72.7145°
Mean anomaly
287.4430°
Rev number
1,027

§ Raw data

STARLINK-371481 68310U 26057S   26144.85327011  .00146347  00000+0  96557-3 0  99912 68310  97.2852 271.0652 0002832  72.7145 287.4430 15.75181110 10275

JSON: /api/v1/satellites/68310 · /tle

For live sub-satellite position, see the globe view (requires WebGL).

§ Visibility from observer

Set your observer location to see the next 7 days of passes ≥ 10°. The values pass through the URL so the page stays shareable.

No JS? Fill the form by hand. The geolocation button needs JavaScript.